Weather in Mayskiy

Russia / Republic of Buryatia     54°35′44″N   110°47′54″E
temp.,
°C
wind,
m/s
gust,
m/s
humid.,
%
clouds,
%
prec.,
mm/h
press.,
hPa
HPBL,
m
21 january, fri
fri2123:00−16sw1198100 0.3 103412
02:00−17nnw009879 0.5 10359
05:00−17nne019877 0.1 103511
08:00−17nne119880 0.2 10379
11:00−15nne119483 0.1 1037106
14:00−13sw119162 0.1 1035182
17:00−20w1110036 0.0 10379
20:00−23nne1110097 0.0 103910
22 january, sat
sat2223:00−22ne0098100 0.1 10409
02:00−23nne119899 0.1 10409
05:00−24n019887 0.1 10419
08:00−26ne009880 0.1 10429
11:00−22nne019641 0.0 104179
14:00−18ssw119239 0.0 1038116
17:00−23sw1110089 0.0 10399
20:00−25ne1110096 0.0 10409
23 january, sun
sun2323:00−26ne119956 0.0 10419
02:00−27e0110040 0.0 10419
05:00−28ene0010042 0.0 10419
08:00−28ese0010032 0.0 10419
11:00−22sse009619 0.0 103964
14:00−18ssw11935 0.0 103691
17:00−23ssw111005 0.0 10379
20:00−25e0010063 0.0 10399
24 january, mon
mon2423:00−26ene0110070 0.0 10409
02:00−27ese009871 0.0 10409
05:00−28ese009865 0.0 10409
08:00−29n009956 0.0 10419
11:00−24ene009645 0.0 104075
14:00−20sw119412 0.0 1037127
17:00−25wsw11995 0.0 10389
20:00−28n119957 0.0 10409
25 january, tue
tue2523:00−28n119883 0.0 10419
02:00−28nnw119884 0.1 10419
05:00−29nnw119889 0.0 10409
08:00−29n119890 0.1 10419
11:00−24nne019682 0.0 103996
14:00−21sw109346 0.1 1037167
17:00−26wnw119920 0.0 10389
20:00−29nne1110062 0.0 10409